Lander, WY

10:42 PM MDT on May 29, 2017 (GMT -0600)
Hunt

Weather History for KLND - October, 2010

Change the Weather History Date:

Thursday, October 14, 2010

  Actual Average Record
Temperature  
Mean Temperature 55 °F 46 °F  
Max Temperature 74 °F 59 °F 81 °F (1958)
Min Temperature 36 °F 33 °F 13 °F (2008)
Degree Days  
Heating Degree Days 10 19  
Month to date heating degree days 109 227  
Since 1 July heating degree days 258 486  
Cooling Degree Days 0 0  
Month to date cooling degree days 2 0  
Year to date cooling degree days 452 472  
Growing Degree Days 4 (Base 50)    
Moisture  
Dew Point 25 °F    
Average Humidity 42    
Maximum Humidity 70    
Minimum Humidity 14    
Precipitation  
Precipitation 0.00 in 0.04 in 0.56 in (1942)
Month to date precipitation 0.13 0.63  
Year to date precipitation 12.92 10.56  
Snow  
Snow 0.00 in 0.30 in - ()
Month to date snowfall 0.0 3.8  
Since 1 July snowfall 0.0 6.5  
Since 1 September snowfall 0.0 6.5  
Snow Depth 0.00 in    
Sea Level Pressure  
Sea Level Pressure 30.18 in    
Wind  
Wind Speed 3 mph (WNW)    
Max Wind Speed 10 mph    
Max Gust Speed 17 mph    
Visibility 10 miles    
Events      
T = Trace of Precipitation, MM = Missing Value Source: NWS Daily Summary

Daily Weather History Graph

Daily Weather History Graph

Search for Another Location

Airport or City:

Trip Planner

Search our weather history database for the weather conditions in past years. The results will help you decide how hot, cold, wet, or windy it might be!

Date:

Astronomy

Oct. 14, 2010 Rise Set
Actual Time 7:27 AM MDT 6:33 PM MDT
Civil Twilight 6:58 AM MDT 7:02 PM MDT
Nautical Twilight 6:25 AM MDT 7:35 PM MDT
Astronomical Twilight 5:53 AM MDT 8:07 PM MDT
Moon 2:33 PM MDT (10/14) No Moon Set
Length of Visible Light 12h 03m
Length of Day
11h 06m
Waxing Crescent, 49% of the Moon is Illuminated
Oct 14
Waxing Crescent
Oct 14
First Quarter
Oct 22
Full
Oct 30
Last Quarter
Nov 5
New

Hourly Weather History & Observations

Time (MDT) Temp. Windchill Dew Point Humidity Pressure Visibility Wind Dir Wind Speed Gust Speed Precip Events Conditions
12:53 AM 44.1 °F - 28.0 °F 53% 30.30 in 10.0 mi Calm Calm - N/A   Clear
1:53 AM 46.0 °F 44.8 °F 27.0 °F 47% 30.27 in 10.0 mi West 3.5 mph - N/A   Clear
2:53 AM 42.1 °F - 28.0 °F 58% 30.27 in 10.0 mi Calm Calm - N/A   Clear
3:53 AM 42.1 °F 38.4 °F 27.0 °F 55% 30.25 in 10.0 mi WNW 5.8 mph - N/A   Clear
4:53 AM 36.0 °F - 27.0 °F 70% 30.27 in 10.0 mi Calm Calm - N/A   Clear
5:53 AM 37.9 °F - 26.1 °F 62% 30.28 in 10.0 mi Calm Calm - N/A   Clear
6:53 AM 42.1 °F - 25.0 °F 51% 30.28 in 10.0 mi Calm Calm - N/A   Clear
7:53 AM 39.0 °F 36.8 °F 25.0 °F 57% 30.30 in 10.0 mi WNW 3.5 mph - N/A   Clear
8:53 AM 44.1 °F - 30.0 °F 58% 30.30 in 10.0 mi Calm Calm - N/A   Clear
9:53 AM 48.9 °F - 28.0 °F 44% 30.28 in 10.0 mi North 3.5 mph - N/A   Clear
10:53 AM 54.0 °F - 28.9 °F 38% 30.27 in 10.0 mi Calm Calm - N/A   Clear
11:53 AM 59.0 °F - 28.0 °F 31% 30.23 in 10.0 mi Variable 3.5 mph - N/A   Clear
12:53 PM 64.0 °F - 28.0 °F 26% 30.19 in 10.0 mi NNW 3.5 mph - N/A   Clear
1:53 PM 68.0 °F - 27.0 °F 21% 30.13 in 10.0 mi North 4.6 mph - N/A   Clear
2:53 PM 71.1 °F - 26.1 °F 19% 30.10 in 10.0 mi Calm Calm - N/A   Clear
3:53 PM 72.0 °F - 26.1 °F 18% 30.09 in 10.0 mi NNW 3.5 mph - N/A   Clear
4:53 PM 73.0 °F - 26.1 °F 17% 30.07 in 10.0 mi Calm Calm - N/A   Clear
5:53 PM 70.0 °F - 28.0 °F 21% 30.06 in 10.0 mi Calm Calm - N/A   Clear
6:53 PM 62.1 °F - 28.9 °F 29% 30.08 in 10.0 mi WSW 5.8 mph - N/A   Clear
7:53 PM 63.0 °F - 21.0 °F 20% 30.09 in 10.0 mi NW 5.8 mph - N/A   Clear
8:53 PM 66.0 °F - 19.9 °F 17% 30.06 in 10.0 mi Variable 3.5 mph - N/A   Clear
9:53 PM 66.0 °F - 16.0 °F 15% 30.04 in 10.0 mi West 8.1 mph - N/A   Clear
10:53 PM 64.0 °F - 16.0 °F 16% 30.03 in 10.0 mi WSW 10.4 mph - N/A   Clear
11:53 PM 60.1 °F - 19.9 °F 21% 30.01 in 10.0 mi Calm Calm - N/A   Clear